Location: Redwood Loop Observatory
(43.9900°N, 124.0900°W)
Time: 17:25:59
(UTC-08:00)

Envisat - Pass Details

Date: 24 October 2019
Orbit: 764 x 766 km, 98.1° (Epoch: 20 November)

Event Time Altitude Azimuth Distance (km) Brightness Sun altitude
Rises 06:46:44 0° 33° (NNE) 3,240 6.6 -10.6°
Reaches altitude 10° 06:50:26 10° 61° (ENE) 2,307 6.4 -10.0°
Maximum altitude 06:52:44 13° 88° (E) 2,099 6.7 -9.6°
Drops below altitude 10° 06:55:02 10° 115° (ESE) 2,299 6.9 -9.1°
Sets 06:58:41 0° 143° (SE) 3,218 7.0 -8.5°
